Home   Weather   Sopron   Past weeks

Flag for Hungary Past Weather in Sopron, Hungary — Yesterday and Last 2 Weeks

Now
69 °F

Mild.


Feels Like: 69 °F
Forecast: 65 / 88 °F
Wind: 2 mph from Northwest

Location: Eisenstadt

Current Time: Jul 22, 2017 at 12:53:33 am

Latest Report: Jul 22, 2017 at 12:00 am


Visibility: N/A

Pressure: 29.92 "Hg

Humidity: 79%

Dew Point: 62 °F

Location of SopronLocation

Past Weather in Sopron — Graph

°F

Sopron Temperature Yesterday

Maximum temperature yesterday: 85 °F (at 5:00 pm)
Minimum temperature yesterday: 65 °F (at 6:00 am)
Average temperature yesterday: 74 °F

High & Low Weather Summary for the Past Weeks

 TemperatureHumidityPressure
High90 °F (Jul 8, 2:00 pm)94% (Jul 10, 1:00 am)30.22 "Hg (Jul 10, 1:00 am)
Low53 °F (Jul 14, 6:00 am)27% (Jul 8, 2:00 pm)29.71 "Hg (Jul 10, 6:00 pm)
Average72 °F61%29.97 "Hg
* Reported Jul 6 11:00 pm — Jul 21 11:00 pm, Sopron. Weather by CustomWeather, © 2017

Note: Actual official high and low records may vary slightly from our data, if they occured in-between our weather recording intervals... More about our weather records

Advertising

Sopron Weather History for the Previous 24 Hours

Scroll right to see more
 ConditionsComfort  
Time TempWeatherWind HumidityBarometerVisibility
11:00 pm
Fri, Jul 21
70 °FClear.3 mph73%29.91 "Hg9 mi
10:00 pm70 °FMild.2 mph74%29.92 "HgN/A
9:00 pm73 °FMild.3 mph69%29.90 "HgN/A
8:00 pm80 °FSunny.2 mph54%29.88 "Hg12 mi
7:00 pm84 °FSunny.5 mph41%29.88 "Hg12 mi
6:00 pm85 °FWarm.2 mph41%29.88 "HgN/A
5:00 pm85 °FPassing clouds.2 mph40%29.89 "Hg12 mi
4:00 pm83 °FWarm.2 mph41%29.91 "HgN/A
3:00 pm83 °FWarm.2 mph43%29.93 "HgN/A
2:00 pm82 °FPassing clouds.5 mph45%29.94 "Hg12 mi
12:00 pm79 °FWarm.2 mph54%29.96 "HgN/A
11:00 am78 °FScattered clouds.3 mph55%29.96 "Hg12 mi
10:00 am75 °FMild.3 mph61%29.97 "HgN/A
9:00 am73 °FMild.5 mph66%29.96 "HgN/A
8:00 am70 °FScattered clouds.3 mph72%29.95 "Hg12 mi
7:00 am67 °FMild.2 mph78%29.95 "HgN/A
6:00 am65 °FPartly sunny.2 mph85%29.93 "Hg12 mi
5:00 am66 °FPassing clouds.2 mph80%29.91 "Hg12 mi
4:00 am67 °FOvercast.7 mph80%29.89 "Hg12 mi
3:00 am67 °FMild.8 mph84%29.89 "HgN/A
2:00 am66 °FRain. Overcast.10 mph88%29.90 "Hg6 mi
1:00 am67 °FFog.9 mph86%29.92 "HgN/A
12:00 am73 °FMild.10 mph63%29.89 "HgN/A
Weather by CustomWeather, © 2017

See weather overviewHow to use our weather pages